Погода в Змеиногорске

Погода в Змеиногорске : погода сейчас, прогноз погоды и архив. Всё, что Вы хотите узнать о погоде в Змеиногорске!

Хотите узнать прогноз погоды в Змеиногорске? Тогда Вам сюда: Погода в Змеиногорске

Поиск расширенной информации на нашем сайте:

Другие новости

Новости СМИ2

Главная страница сайта

Новости сайта

03.07.2017

Напоминаем, что на нашем специализированном сайте Метеоцентр.Азия вы можете получить высокодетализированные автоматические прогнозы погоды по пунктам России, СНГ и мира в авиационном формате (включающие направление и скорость ветра, видимость, явления погоды, количество и форму облачности, нижнюю и верхнюю границу облачности).


Погода в Змеиногорске - сегодня

Время (UTC), дата Ветер
(°,м/с) 
Видим.   Явления Облачность Т
(°С)
Тd
(°С)
f(%) Тe
(°С)
Pmin
(гПа)
dP
(гПа)
Po
(мм)
O2
(г/м3)
Тmin Tmax R s Состояние
почвы
09 20.02.18 300 (СЗ) 20000 м    10/0 верхняя 
[Cs]
-5.1 -14.5 48 -5  1037  -1.7  743  307           
12 20.02.18 тихо ()   20000 м    10/0 верхняя 
[Ci]
-8.8 -14.9 61 -9  1035.8  -1.7  742  310    -4.3       
15 20.02.18 тихо ()   20000 м    10/0 верхняя 
[Cs]
-17.1 -20.2 77 -17  1036.4  -0.9  742  320           
18 20.02.18 тихо ()   20000 м    ясно 
-19.9 -22.8 78 -20  1035.1  -1.8  740  323           
21 20.02.18 130 (ЮВ) 20000 м    ясно 
-20.2 -23.3 76 -20  1033.5  -1.5  739  323           
00 21.02.18 тихо ()   20000 м    ясно 
-21.5 -24.7 75 -22  1032.3  -1.4  738  324  -21.6      25  неравномерный
сухой снег
100% 
03 21.02.18 тихо ()   20000 м    10/0 верхняя 
[Ci]
-18.4 -21.7 75 -18  1029.3  -2.3  736  320  -21.7         
06 21.02.18 тихо ()   20000 м    10/0 верхняя 
[Ci]
-3.1 -13.1 46 -3  1025.2  -1.2  735  301           
09 21.02.18 320 (СЗ) 20000 м    10/0 верхняя 
[Ci]
-1.1 -12.1 43 -1  1023.1  -1.7  734  298           
12 21.02.18 тихо ()   20000 м    10/3 600 м средняя, верхняя 
[Sc|Ac As|Cc]
-3.5 -12.7 49 -4  1021.4  -2  733  300    +4.4       
15 21.02.18 тихо ()   20000 м    10/3 600 м средняя, верхняя 
[Sc|Ac As|Ci]
-7.1 -13 63 -7  1021.4  -0.6  732  304           
18 21.02.18 190 (Ю) 20000 м    10/10 600 м 
[Sc]
-4.8 -13.7 50 -7  1020.4  -0.6  732  301           
00 22.02.18 190 (Ю) 5-10{12}  4000 м  слаб. ливневой снег  10/10 600 м кучево-дожд. 
[Cb cap]
-3.9 -5.9 86 -8  1020.3  0.6  732  300  -8.3    27  неравномерный
сухой снег
100% 
09 22.02.18 220 (ЮЗ) 4{11}  10 км  слаб. ливневой снег  10/10 600 м кучево-дожд. 
[Cb cap]
-4.5 -8.6 73 -8  1025.5  1.3  735  302           
12 22.02.18 260 (З) 20000 м  {ливн. осадки}  10/6 600 м кучево-дожд., средняя, верхняя 
[Cb cap|Ac As|Cs]
-7.8 -11.9 72 -8  1028.1  1.9  737  307    -3.2     
15 22.02.18 170 (Ю) 10 км  слаб. снег  9/9 600 м 
[Sc]
-10.7 -13.4 80 -11  1029.8  1.2  738  311           
18 22.02.18 040 (СВ) 10 км  слаб. снег  10/10 600 м 
[Sc]
-11.8 -14.4 81 -12  1030.4  0.4  738  312           
21 22.02.18 030 (СВ) 20000 м  в посл. час снег  6/6 600 м 
[Sc]
-17.1 -19.8 80 -17  1031.4  738  319           
00 23.02.18 040 (СВ) 20000 м  {снег}  ясно 
-21.4 -24.5 76 -22  1031.9  -0.4  738  324  -21.4    0.2  27  неравномерный
сухой снег
100% 
03 23.02.18 090 (В) 20000 м    10/0 верхняя 
[Cs]
-16.7 -19.5 79 -19  1030.6  -0.3  737  318  -21.7         
06 23.02.18 180 (Ю) 20000 м  позёмок  10/0 верхняя 
[Ci fib]
-5.4 -10.7 66 -9  1028.3  -0.3  737  304           
09 23.02.18 190 (Ю) 20000 м  позёмок{ливн. осадки}  10/0 средняя, верхняя 
[Ac cast|Ci fib]
-2.7 -8.5 64 -5  1025.9  -1.8  736  300           
12 23.02.18 210 (ЮЗ) 20000 м  {ливн. осадки}  10/4 600 м средняя, верхняя 
[Sc|Ac As|Cs]
-4.8 -9 72 -6  1025  -1.2  735  302    -2.4  0.0     
15 23.02.18 150 (ЮВ) 20000 м    9/9 600 м кучево-дожд. 
[Cb cap]
-5.8 -9.2 77 -5  1024.2  -0.9  734  303           
18 23.02.18 210 (ЮЗ) 20000 м    10/10 600 м кучево-дожд. 
[Cb cap]
-3.4 -7.1 76 -6  1022.4  -1.3  733  300           
Время (UTC), дата Ветер
(°,м/с) 
Видим.   Явления Облачность Т
(°С)
Тd
(°С)
f(%) Тe
(°С)
Pmin
(гПа)
dP
(гПа)
Po
(мм)
O2
(г/м3)
Тmin Tmax R s Состояние
почвы

Для получения пояснительной информации подведите курсор к названию столбца.

ПОГОДА в Змеиногорске - архив

Всё, что Вы хотите узнать о погоде в Змеиногорске - удобно и подробно!

Выберите нужную дату (начиная с 1 января 2015* года) и нажмите кнопку "Найти".
Будут отображены архивные сводки погоды по пункту Змеиногорск, начиная с указанной даты.


Отображать данные в формате CSV (для использования в таблицах Excel)


Внимание! Наш архив погоды предназначен исключительно для личного некоммерческого использования в познавательных целях. Если Вам необходимы официальные справки о состоянии погоды (для производственных, юридических, коммерческих и т.п. целей), обращайтесь в органы Росгидромета.

*Примечание: данная дата относится к архиву по метеостанциям СССР (Россия, СНГ, Балтия).
Архив по метеостанциям Зарубежной Европы и Азии (кроме Китая) хранится 10 дней, по другим регионам земного шара (Китай, Африка, Америка, Австралия, Океания) - 1 день.

Змеиногорск - район местоположения метеостанции


Название, широта, долгота, высота метеостанции:
Змеиногорск 51.2°ш. 82.2°д. 355 м над ур. моря [Российская Федерация]

Дополнительная информация

В oтличие oт бoльшинства пoгoдных сайтoв мы публикуем пoдрoбную метеoинфoрмацию в детальнoм прoфессиoнальнoм фoрмате.

Характеристики температуры и влажнoсти вoздуха измеряются на высoте 2 м в тени вдали oт зданий и деревьев.
Скoрoсть ветра измеряется на высoте 10 м (на урoвне рoста челoвека скoрoсть ветра ниже в 1.5-2 раза). Если метеoстанция нахoдится в гoрoде или в лесу, тo скoрoсть ветра занижена на 2-4 м/с пo сравнению с oткрытым местoм. Скoрoсть ветра над акватoриями крупных рек и oзёр, а также на вершинах хoлмoв на 2-5 м/с выше, чем в oбычных услoвиях.
Атмoсфернoе давление в разных тoчках местнoсти мoжет значительнo oтличаться oт давления на метеoстанции, в зависимoсти oт услoвий рельефа (при пoдъёме на 10 м давление пoнижается примернo на 1 мм рт.ст.).